Preview of NWS' New Version of Forecast
This preview is not operational and should not be used for support decisions.

Regional Weather Roundup (RWR)

Issued by National Weather Service (NWS)

                            
000
ASCA42 TJSJ 171310
RWRPR 
PUERTO RICO/U.S. VIRGIN ISLANDS HOURLY WEATHER ROUNDUP
NATIONAL WEATHER SERVICE SAN JUAN PR
900 AM AST SUN FEB 17 2019

PRZ001>002-007>008-010-171400-
PUERTO RICO
  
CITY           SKY/WX    TMP DP  RH WIND       PRES   REMARKS
SAN JUAN LMM   MOSUNNY   81  72  74 E3        30.11R                  
AGUADILLA      SUNNY     79  70  73 E6        30.11R                  
CEIBA            N/A    N/A N/A N/A MISG      30.12R                  
$$

VIZ001>002-171400-
U.S. VIRGIN ISLANDS
  
CITY           SKY/WX    TMP DP  RH WIND       PRES   REMARKS
CHARLOTTE AMA  MOSUNNY   81  73  78 SE13      30.10R                  
CHRISTIANSTED  MOSUNNY   82  73  74 E13       30.11R                  
$$

HOURLY WEATHER ROUNDUP FOR THE NEWS MEDIA
  
CITY           SKY/WX    TMP DP  RH WIND       PRES   REMARKS
ORLANDO        FAIR      67  64  90 S6        29.99R                  
NEW YORK       FAIR      27  15  61 N10       30.16R WCI  17          
NEWARK         FAIR      27  15  61 N10       30.15R WCI  17          
CHICAGO        LGT SNOW  24  20  84 E10       29.88F FOG     WCI  14  
HARTFORD       FAIR      26  12  55 VRB5      30.10R WCI  20          
BOSTON         FAIR      25   8  48 NW10      30.12R WCI  15          
DALLAS         CLOUDY    43  39  86 N14       29.88R                  
PHILADELPHIA   PTSUNNY   27  15  61 N6        30.19R WCI  20          
LOS ANGELES    PTCLDY    48  39  71 N5        30.06S                  
WASHINGTON DC  PTSUNNY   29  22  75 CALM      30.13R